Hourly Weather Roundup
Issued by NWS Central Illinois

Home | Current Version | Previous Version | Text Only | Print | Product List | Glossary On
Versions: 1 2 3 4 5 6 7 8 9 10 11 12 13 14 15 16 17 18 19 20 21 22 23 24 25 26 27 28 29 30 31 32 33 34 35 36 37 38 39 40 41 42 43 44 45 46 47 48 49 50
000
NZUS43 KILX 250410
HWRILX

Area Weather Roundup
National Weather Service Lincoln IL
1100 PM CDT MON APR 24 2017

NOTE:  "FAIR" indicates few or no clouds below 12,000 feet, with
       no sigificant weather and/or obstructions to visibility.


CITY           SKY/WX    TMP DP  RH WIND       PRES   REMARKS
Bloomington    CLEAR     60  34  37 SE8       29.75R
Champaign      CLEAR     56  35  45 E6        29.74S
Danville       CLEAR     61  38  43 E3        29.72S
Decatur        CLEAR     51  37  58 S6        29.72F
Effingham      CLEAR     52  47  83 CALM      29.74F
Flora          CLEAR     55  45  69 CALM      29.74S
Galesburg      PTCLDY    60  30  32 SE3       29.69R
Jacksonville   CLEAR     58  32  37 SE5       29.70S
Lacon          CLEAR     60  32  35 SE6       29.71F
Lawrenceville  CLEAR     60  50  69 CALM      29.74S
Litchfield     CLEAR     54  36  51 SE5       29.72F
$$


CITY           SKY/WX    TMP DP  RH WIND       PRES   REMARKS
Lincoln        CLEAR     53  35  50 CALM      29.72F
Macomb         CLEAR     57  30  35 S7        29.72R
Mattoon        CLEAR     55  46  71 SE3       29.73S
Mt Carmel AP   CLEAR     57  45  65 CALM      29.73S
Olney-Noble AP CLEAR     55  44  65 CALM      29.75R
Paris AP       CLEAR     57  42  57 CALM      29.75R
Peoria         CLEAR     63  29  27 SE8       29.71F
Pontiac        CLEAR     55  37  50 SE6       29.75S
Rantoul        CLEAR     61  40  44 E6        29.74S
Robinson       CLEAR     53  45  72 CALM      29.74S
Springfield    CLEAR     61  32  33 S8        29.71F
Taylorville    CLEAR     57  34  41 SE5       29.73R
$$

...REGIONAL REPORTS...


CITY           SKY/WX    TMP DP  RH WIND       PRES   REMARKS
Chicago O`Hare PTCLDY    53  36  52 NE3       29.76F
Kankakee       CLEAR     59  38  45 E7        29.76S
Moline           N/A     62  30  29 MISG      29.68R
Mount Sterling CLEAR     58  33  38 SE8       29.68F
Mount Vernon   CLEAR     48  47  96 CALM      29.74S
Pittsfield     CLEAR     62  34  36 SE6       29.71R
Quincy         CLEAR     60  33  36 SE8       29.67F
Rockford       CLOUDY    60  32  34 SE10      29.74F
$$


CITY           SKY/WX    TMP DP  RH WIND       PRES   REMARKS
Burlington     CLEAR     63  32  31 S10       29.67S
Cedar Rapids   CLEAR     57  32  38 SE5       29.65S
Des Moines     CLOUDY    64  35  34 S8        29.59F
Kirksville     CLEAR     54  32  43 SE10      29.65S
Ottumwa        PTCLDY    61  32  33 SE10      29.64S
St Louis       CLEAR     67  37  33 SE9       29.72S
$$


CITY           SKY/WX    TMP DP  RH WIND       PRES   REMARKS
Terre Haute    CLEAR     55  46  71 CALM      29.74F
Evansville     PTCLDY    63  49  60 CALM      29.75S
Indianapolis   PTCLDY    62  51  67 SE12      29.78R
Lafayette      CLEAR     58  43  57 E10       29.75F
Madison        CLOUDY    62  29  28 SE15      29.72S
Milwaukee      CLOUDY    47  36  65 NE3       29.78F
$$






USA.gov is the U.S. government's official web portal to all federal, state and local government web resources and services.